カタログに戻る

STARLINK-11189

運用中通信VLEO
NORAD 60188·PAYLOAD·🇺🇸 United States

打ち上げ Jul 3, 2024 から Cape Canaveral Space Force Station

Loading…

次のパス (今後24時間)

TLE

最新Source: CelesTrak SupGP

元期: Sep 15, 2026, 02:47 UTC

1 60188C 24124F   26258.11645833  .00051310  00000+0  42257-3 0  2580
2 60188  53.1569 307.8179 0001244  76.5580 176.8357 15.69688694    11

AllMySatでSTARLINK-11189をリアルタイム追跡

Download on the App Store